Location: Rotheul
(50.2849°N, 11.2349°E)
Time: 01:31:11
(UTC+02:00)

ISS - Pass Details

Date: 23 September 2018
Orbit: 403 x 409 km, 51.6° (Epoch: 24 September)

Event Time Altitude Azimuth Distance (km) Brightness Sun altitude
Rises 21:08:17 0° 231° (SW) 2,326 0.4 -19.0°
Reaches altitude 10° 21:10:25 10° 224° (SW) 1,467 -0.8 -19.3°
Enters shadow 21:12:21 29° 202° (SSW) 784 -2.5 -19.6°
